timestamp,wind_dir_avg,wind_spd_avg,wind_spd_max_dir,wind_spd_gust,battery_voltage,lat,long
2023-07-01 00:04:00+00:00,214.0,7.74,220.0,8.97,12.57,47.59359,-54.27349
2023-07-01 00:14:00+00:00,217.0,8.49,231.0,11.32,12.41,47.59359,-54.27349
2023-07-01 00:24:00+00:00,214.0,7.45,216.0,7.76,12.41,47.59359,-54.27349
2023-07-01 00:34:00+00:00,213.0,6.94,212.0,7.37,12.41,47.59359,-54.27349
2023-07-01 00:44:00+00:00,216.0,6.47,214.0,6.81,12.41,47.59359,-54.27349
2023-07-01 00:54:00+00:00,221.0,6.72,224.0,7.72,12.41,47.59359,-54.27349
2023-07-01 01:04:00+00:00,220.0,7.11,214.0,7.77,12.41,47.59359,-54.27349
2023-07-01 01:14:00+00:00,220.0,7.34,217.0,8.12,12.41,47.59359,-54.27349
2023-07-01 01:24:00+00:00,216.0,7.43,214.0,8.06,12.41,47.59359,-54.27349
2023-07-01 01:34:00+00:00,315.0,0.01,226.0,0.0,12.41,47.59359,-54.27349
2023-07-01 01:44:00+00:00,218.0,6.69,219.0,6.7,12.41,47.59359,-54.27349
2023-07-01 01:54:00+00:00,315.0,0.01,216.0,0.0,12.41,47.59359,-54.27349
2023-07-01 02:04:00+00:00,225.0,3.57,229.0,3.91,12.41,47.59359,-54.27349
2023-07-01 02:14:01+00:00,315.0,0.01,216.0,0.0,12.41,47.59359,-54.27349
2023-07-01 02:24:01+00:00,213.0,4.49,213.0,4.9,12.41,47.59359,-54.27349
2023-07-01 02:34:01+00:00,208.0,5.32,207.0,5.95,12.41,47.59359,-54.27349
2023-07-01 02:44:01+00:00,204.0,5.33,202.0,6.26,12.41,47.59359,-54.27349
2023-07-01 02:54:01+00:00,203.0,3.83,206.0,4.39,12.41,47.59359,-54.27349
2023-07-01 03:04:01+00:00,206.0,3.96,206.0,4.6,12.41,47.59359,-54.27349
2023-07-01 03:14:00+00:00,204.0,5.1,201.0,5.82,12.33,47.59359,-54.27349
2023-07-01 03:24:00+00:00,205.0,5.6,201.0,5.92,12.33,47.59359,-54.27349
2023-07-01 03:34:00+00:00,206.0,5.34,204.0,5.82,12.33,47.59359,-54.27349
2023-07-01 03:44:00+00:00,213.0,5.96,214.0,6.42,12.33,47.59359,-54.27349
2023-07-01 03:54:00+00:00,219.0,6.09,216.0,6.61,12.33,47.59359,-54.27349
2023-07-01 04:04:00+00:00,315.0,0.01,230.0,0.0,12.33,47.59359,-54.27349
2023-07-01 05:14:00+00:00,206.0,5.38,207.0,6.08,12.25,47.59359,-54.27349
2023-07-01 05:24:00+00:00,212.0,5.42,213.0,5.93,12.25,47.59359,-54.27349
2023-07-01 05:34:00+00:00,211.0,5.79,211.0,6.21,12.25,47.59359,-54.27349
2023-07-01 05:44:00+00:00,206.0,5.75,206.0,6.48,12.25,47.59359,-54.27349
2023-07-01 05:54:00+00:00,209.0,5.26,209.0,5.59,12.25,47.59359,-54.27349
2023-07-01 06:04:00+00:00,208.0,5.25,207.0,5.6,12.25,47.59359,-54.27349
2023-07-01 06:14:00+00:00,205.0,5.05,206.0,5.61,12.25,47.59359,-54.27349
2023-07-01 06:24:00+00:00,208.0,4.52,207.0,5.21,12.25,47.59359,-54.27349
2023-07-01 06:34:00+00:00,207.0,4.35,205.0,5.38,12.25,47.59359,-54.27349
2023-07-01 06:44:00+00:00,205.0,4.61,204.0,5.09,12.25,47.59359,-54.27349
2023-07-01 06:54:00+00:00,199.0,5.32,199.0,5.6,12.25,47.59359,-54.27349
2023-07-01 07:04:00+00:00,315.0,0.01,199.0,0.0,12.25,47.59359,-54.27349
2023-07-01 07:14:00+00:00,225.0,7.25,230.0,8.09,12.17,47.59359,-54.27349
2023-07-01 07:24:00+00:00,201.0,6.28,202.0,6.29,12.17,47.59359,-54.27349
2023-07-01 07:34:00+00:00,315.0,0.01,204.0,0.0,12.17,47.59359,-54.27349
2023-07-01 07:44:00+00:00,209.0,5.06,210.0,5.07,12.17,47.59359,-54.27349
2023-07-01 07:54:00+00:00,207.0,4.76,208.0,5.03,12.17,47.59359,-54.27349
2023-07-01 08:04:00+00:00,206.0,4.91,208.0,5.38,12.17,47.59359,-54.27349
2023-07-01 08:14:01+00:00,206.0,4.6,209.0,5.36,12.17,47.59359,-54.27349
2023-07-01 08:24:01+00:00,208.0,4.51,207.0,5.0,12.17,47.59359,-54.27349
2023-07-01 08:34:01+00:00,204.0,4.57,203.0,5.07,12.17,47.59359,-54.27349
2023-07-01 08:44:01+00:00,202.0,4.85,199.0,5.2,12.17,47.59359,-54.27349
2023-07-01 08:54:01+00:00,200.0,5.14,203.0,5.62,12.17,47.59359,-54.27349
2023-07-01 09:04:01+00:00,201.0,5.28,205.0,5.64,12.17,47.59359,-54.27349
2023-07-01 09:14:01+00:00,204.0,4.63,203.0,4.96,12.25,47.59359,-54.27349
2023-07-01 09:24:01+00:00,203.0,4.77,202.0,5.38,12.25,47.59359,-54.27349
2023-07-01 09:34:01+00:00,201.0,5.06,200.0,5.45,12.25,47.59359,-54.27349
2023-07-01 09:44:01+00:00,192.0,4.67,194.0,5.31,12.25,47.59359,-54.27349
2023-07-01 09:54:01+00:00,211.0,4.48,214.0,5.2,12.25,47.59359,-54.27349
2023-07-01 10:04:01+00:00,315.0,0.01,214.0,0.0,12.25,47.59359,-54.27349
2023-07-01 10:14:00+00:00,229.0,5.6,230.0,5.61,13.29,47.59359,-54.27349
2023-07-01 10:24:00+00:00,217.0,4.83,218.0,5.08,13.29,47.59359,-54.27349
2023-07-01 10:34:00+00:00,315.0,0.01,217.0,0.0,13.29,47.59359,-54.27349
2023-07-01 10:44:00+00:00,209.0,4.25,215.0,4.7,13.29,47.59359,-54.27349
2023-07-01 10:54:00+00:00,211.0,3.9,209.0,4.21,13.29,47.59359,-54.27349
2023-07-01 11:04:00+00:00,216.0,4.37,218.0,4.84,13.29,47.59359,-54.27349
2023-07-01 11:14:01+00:00,199.0,6.05,201.0,6.28,13.29,47.59359,-54.27349
2023-07-01 11:24:01+00:00,315.0,0.01,212.0,0.0,13.29,47.59359,-54.27349
2023-07-01 11:34:01+00:00,315.0,0.01,218.0,0.0,13.29,47.59359,-54.27349
2023-07-01 11:44:01+00:00,227.0,5.93,224.0,6.07,13.29,47.59359,-54.27349
2023-07-01 11:54:01+00:00,236.0,5.5,235.0,5.9,13.29,47.59359,-54.27349
2023-07-01 12:04:01+00:00,230.0,3.41,228.0,4.02,13.29,47.59359,-54.27349
2023-07-01 12:14:00+00:00,216.0,4.02,215.0,4.38,13.37,47.59359,-54.27349
2023-07-01 12:24:00+00:00,315.0,0.01,212.0,0.0,13.37,47.59359,-54.27349
2023-07-01 12:34:00+00:00,224.0,7.18,226.0,7.71,13.37,47.59359,-54.27349
2023-07-01 12:44:00+00:00,226.0,7.13,228.0,7.89,13.37,47.59359,-54.27349
2023-07-01 12:54:00+00:00,215.0,8.61,213.0,9.45,13.37,47.59359,-54.27349
2023-07-01 13:04:00+00:00,214.0,9.29,215.0,9.3,13.37,47.59359,-54.27349
2023-07-01 13:14:01+00:00,207.0,6.39,209.0,6.99,13.68,47.59359,-54.27349
2023-07-01 13:24:01+00:00,214.0,5.84,211.0,6.39,13.68,47.59359,-54.27349
2023-07-01 13:34:01+00:00,206.0,6.63,208.0,7.12,13.68,47.59359,-54.27349
2023-07-01 13:44:01+00:00,210.0,6.58,207.0,7.33,13.68,47.59359,-54.27349
2023-07-01 13:54:01+00:00,221.0,6.21,222.0,6.64,13.68,47.59359,-54.27349
2023-07-01 14:04:01+00:00,214.0,7.3,215.0,7.78,13.68,47.59359,-54.27349
2023-07-01 14:14:00+00:00,218.0,6.82,216.0,7.3,13.53,47.59359,-54.27349
2023-07-01 14:24:00+00:00,219.0,6.48,217.0,6.97,13.53,47.59359,-54.27349
2023-07-01 14:34:00+00:00,221.0,5.53,223.0,6.1,13.53,47.59359,-54.27349
2023-07-01 14:44:00+00:00,213.0,4.63,214.0,4.64,13.53,47.59359,-54.27349
2023-07-01 14:54:00+00:00,199.0,5.83,198.0,6.1,13.53,47.59359,-54.27349
2023-07-01 15:04:00+00:00,199.0,6.99,199.0,7.36,13.53,47.59359,-54.27349
2023-07-01 15:14:01+00:00,205.0,6.26,207.0,6.94,13.76,47.59359,-54.27349
2023-07-01 15:24:01+00:00,211.0,6.76,219.0,7.82,13.76,47.59359,-54.27349
2023-07-01 15:34:01+00:00,204.0,6.14,202.0,6.88,13.76,47.59359,-54.27349
2023-07-01 15:44:01+00:00,200.0,6.6,202.0,7.33,13.76,47.59359,-54.27349
2023-07-01 15:54:01+00:00,199.0,7.28,198.0,7.86,13.76,47.59359,-54.27349
2023-07-01 16:04:01+00:00,204.0,6.91,213.0,7.79,13.76,47.59359,-54.27349
2023-07-01 16:14:00+00:00,200.0,6.38,198.0,6.92,14.0,47.59359,-54.27349
2023-07-01 16:24:00+00:00,200.0,6.59,200.0,7.39,14.0,47.59359,-54.27349
2023-07-01 16:34:00+00:00,200.0,7.32,201.0,8.06,14.0,47.59359,-54.27349
2023-07-01 16:44:00+00:00,201.0,6.95,196.0,7.82,14.0,47.59359,-54.27349
2023-07-01 16:54:00+00:00,209.0,7.86,210.0,9.16,14.0,47.59359,-54.27349
2023-07-01 17:04:00+00:00,207.0,8.76,207.0,9.7,14.0,47.59359,-54.27349
2023-07-01 17:14:00+00:00,207.0,7.37,212.0,8.36,13.68,47.59359,-54.27349
2023-07-01 17:24:00+00:00,197.0,7.18,199.0,7.48,13.68,47.59359,-54.27349
2023-07-01 17:34:00+00:00,197.0,6.91,197.0,6.98,13.68,47.59359,-54.27349
2023-07-01 17:44:00+00:00,194.0,8.24,195.0,8.73,13.68,47.59359,-54.27349
2023-07-01 17:54:00+00:00,194.0,7.81,192.0,8.83,13.68,47.59359,-54.27349
2023-07-01 18:04:00+00:00,200.0,6.73,205.0,7.31,13.68,47.59359,-54.27349
2023-07-01 18:14:00+00:00,199.0,7.72,199.0,8.8,13.68,47.59359,-54.27349
2023-07-01 18:24:00+00:00,196.0,7.43,198.0,8.48,13.68,47.59359,-54.27349
2023-07-01 18:34:00+00:00,194.0,8.66,195.0,9.43,13.68,47.59359,-54.27349
2023-07-01 18:44:00+00:00,195.0,7.99,193.0,8.79,13.68,47.59359,-54.27349
2023-07-01 18:54:00+00:00,202.0,7.19,201.0,8.22,13.68,47.59359,-54.27349
2023-07-01 19:04:00+00:00,211.0,6.44,215.0,7.07,13.68,47.59359,-54.27349
2023-07-01 19:14:00+00:00,201.0,6.94,197.0,7.32,13.6,47.59359,-54.27349
2023-07-01 19:24:00+00:00,200.0,6.84,201.0,7.53,13.6,47.59359,-54.27349
2023-07-01 19:34:00+00:00,208.0,8.68,210.0,9.1,13.6,47.59359,-54.27349
2023-07-01 19:44:00+00:00,214.0,8.63,213.0,9.76,13.6,47.59359,-54.27349
2023-07-01 19:54:00+00:00,212.0,10.04,210.0,10.98,13.6,47.59359,-54.27349
2023-07-01 20:04:00+00:00,213.0,9.48,212.0,10.29,13.6,47.59359,-54.27349
2023-07-01 20:14:00+00:00,215.0,8.07,212.0,9.06,13.68,47.59359,-54.27349
2023-07-01 20:24:00+00:00,220.0,8.19,221.0,9.39,13.68,47.59359,-54.27349
2023-07-01 20:34:00+00:00,218.0,8.22,220.0,8.98,13.68,47.59359,-54.27349
2023-07-01 20:44:00+00:00,214.0,8.75,214.0,9.55,13.68,47.59359,-54.27349
2023-07-01 20:54:00+00:00,315.0,0.01,219.0,0.0,13.68,47.59359,-54.27349
2023-07-01 21:04:00+00:00,315.0,0.01,219.0,0.0,13.68,47.59359,-54.27349
2023-07-01 21:14:01+00:00,215.0,8.34,210.0,9.51,13.44,47.59359,-54.27349
2023-07-01 21:24:01+00:00,315.0,0.01,220.0,0.0,13.44,47.59359,-54.27349
2023-07-01 21:34:01+00:00,217.0,7.53,217.0,7.76,13.44,47.59359,-54.27349
2023-07-01 21:44:01+00:00,315.0,0.01,221.0,0.0,13.44,47.59359,-54.27349
2023-07-01 21:54:01+00:00,315.0,0.01,224.0,0.0,13.44,47.59359,-54.27349
2023-07-01 22:04:01+00:00,315.0,0.01,221.0,0.0,13.44,47.59359,-54.27349
2023-07-01 22:14:00+00:00,315.0,0.01,214.0,0.0,13.21,47.59359,-54.27349
2023-07-01 22:24:00+00:00,212.0,5.69,215.0,5.85,13.21,47.59359,-54.27349
2023-07-01 22:34:00+00:00,315.0,0.01,214.0,0.0,13.21,47.59359,-54.27349
2023-07-01 22:44:00+00:00,212.0,5.45,213.0,5.51,13.21,47.59359,-54.27349
2023-07-01 22:54:00+00:00,315.0,0.01,210.0,0.0,13.21,47.59359,-54.27349
2023-07-01 23:04:00+00:00,315.0,0.01,210.0,0.0,13.21,47.59359,-54.27349
2023-07-01 23:14:00+00:00,315.0,0.01,210.0,0.0,12.73,47.59359,-54.27349
2023-07-01 23:24:00+00:00,315.0,0.01,202.0,0.0,12.73,47.59359,-54.27349
2023-07-01 23:34:00+00:00,315.0,0.01,208.0,0.0,12.73,47.59359,-54.27349
2023-07-01 23:44:00+00:00,315.0,0.01,208.0,0.0,12.73,47.59359,-54.27349
2023-07-01 23:54:00+00:00,315.0,0.01,208.0,0.0,12.73,47.59359,-54.27349
